Regional Weather Roundup
Issued by NWS La Crosse, WI

Current Version |  Previous Version |  Text Only |  Print | Product List |  Glossary On
Versions: 1 2 3 4 5 6 7 8 9 10 11 12 13 14 15 16 17 18 19 20 21 22 23 24 25 26 27 28 29 30 31 32 33 34 35 36 37 38 39 40 41 42 43 44 45 46 47 48 49 50
171
ASUS43 KARX 201310
RWRARX

HOURLY WEATHER FOR THE UPPER MISSISSIPPI RIVER VALLEY
NATIONAL WEATHER SERVICE LA CROSSE WI
800 AM CDT THU JUN 20 2024

NOTE: "FAIR" indicates few or no clouds below 12,000 feet with no
significant weater and/or obstructions to visibility.

MNZ077-085>088-093>096-201400
Southeast Minnesota

CITY           SKY/WX    TMP DP  RH WIND       PRES   REMARKS
ROCHESTER      MOSUNNY   64  57  78 E8        30.33F
WINONA         SUNNY     64  55  72 CALM      30.34R
AUSTIN         SUNNY     64  59  82 NE7       30.33F
ALBERT LEA     MOSUNNY   63  59  88 E9        30.32F
DODGE CENTER   MOSUNNY   61  57  88 CALM      30.34S
PRESTON        SUNNY     64  64 100 VRB6      30.33S
OWATONNA       MOSUNNY   63  57  82 NE6       30.34S
FARIBAULT      MOSUNNY   63  55  77 N5        30.35F
$$

WIZ041-042-053>056-061-201400
Southwest Wisconsin

CITY           SKY/WX    TMP DP  RH WIND       PRES   REMARKS
LA CROSSE      SUNNY     66  57  72 NW3       30.33R
SPARTA         CLOUDY    63  63  99 CALM      30.31R
WIS DELLS      CLOUDY    66  65  97 NE10G16   30.33R
PRAIRIE DU CHI CLOUDY    66  63  89 CALM      30.31R
BOSCOBEL       CLOUDY    67  64  90 CALM      30.32R
LONE ROCK      LGT RAIN  68  65  90 CALM      30.32R FOG
PLATTEVILLE    CLOUDY   N/A N/A N/A E5        30.32R
$$

WIZ017-030-034>036-043>045-201400
Central Wisconsin

CITY           SKY/WX    TMP DP  RH WIND       PRES   REMARKS
MEDFORD        CLOUDY    60  49  67 E9        30.39R
WAUSAU         CLOUDY    63  57  81 E8        30.37S
BLACK RVR FLS  CLOUDY    64  61  91 NE5       30.35R
WIS RAPIDS     CLOUDY    61  54  77 E13G22    30.38R
MARSHFIELD     CLOUDY    61  60  97 E12       30.37R FOG
MAUSTON        CLOUDY    65  65 100 CALM      30.34R
CAMP DOUGLAS   CLOUDY    66  63  91 NE8       30.32R
WAUTOMA        LGT RAIN  61  61 100 NE8       30.36R
$$

IAZ008>011-017>019-029-030-201400
Northeast Iowa

CITY           SKY/WX    TMP DP  RH WIND       PRES   REMARKS
WATERLOO       CLOUDY    66  62  87 N5        30.30R
DUBUQUE        LGT RAIN  69  68  96 N3        30.31R VSB 1/2
DECORAH        CLOUDY    63  63 100 VRB7      30.31R
MASON CITY     CLOUDY    63  59  87 E7        30.33S
CHARLES CITY   MOSUNNY   64  63  94 N9        30.32S
OELWEIN        CLOUDY    64  64 100 NE7       30.31R
$$

Wind speeds are in miles per hour.

 Abbreviations used in the REMARKS:
VSB - Visibility in statute miles
WCI - Wind chill index
HX  - Heat Index